Flag for United Kingdom Weather past 2 weeks in Oxford, England, United Kingdom

Now
54 °F

Clear.


Feels Like: 50 °F
Forecast: 48 / 63 °F
Wind: 13 mph from Southwest

Location: Benson

Current Time: Jun 3, 2015 at 12:35:35 AM

Latest Report: Jun 2, 2015 at 11:50 PM


Visibility: 10 mi

Pressure: 29.89 "Hg

Humidity: 67%

Dew point: 43 °F

Location of OxfordLocation

Historic Weather in Oxford — Graph

°F

Oxford temperature yesterday

Maximum temperature yesterday: 63 °F (at 12:50 PM)
Minimum temperature yesterday: 52 °F (at 12:50 AM)
Average temperature yesterday: 58 °F

Past Weeks' High & Low Weather Summary

 TemperatureHumidityPressure
High66 °F (May 22, 4:50 PM)100% (May 20, 12:50 AM)30.33 "Hg (May 20, 12:50 AM)
Low34 °F (May 21, 3:50 AM)39% (May 28, 1:50 PM)29.53 "Hg (Jun 2, 2:50 AM)
Average53 °F75%30.00 "Hg
* Reported May 18 10:50 PM — Jun 2 10:50 PM, Oxford, Weather by CustomWeather, © 2015

Note: Actual official high and low records may vary slightly from our data, if they occured in-between our weather recording intervals... More about our weather records

Advertising

Oxford weather history for previous 24 hours

 ConditionsComfort  
Time TempWeatherWind HumidityBarometerVisibility
10:50 PM
Tue, Jun 2
55 °FClear.16 mph63%29.86 "Hg10 mi
9:50 PM57 °FSunny.16 mph59%29.83 "Hg10 mi
8:50 PM57 °FPartly sunny.9 mph67%29.80 "HgN/A
7:50 PM59 °FScattered clouds.16 mph59%29.77 "HgN/A
6:50 PM61 °FPartly sunny.16 mph59%29.77 "HgN/A
4:50 PM63 °FScattered clouds.22 mph59%29.71 "HgN/A
3:50 PM63 °FScattered clouds.22 mph68%29.68 "HgN/A
2:50 PM61 °FBroken clouds.17 mph83%29.65 "HgN/A
1:50 PM63 °FDrizzle. Partly sunny.22 mph83%29.62 "HgN/A
12:50 PM63 °FDrizzle. Mostly cloudy.24 mph77%29.62 "HgN/A
11:50 AM61 °FMostly cloudy.24 mph83%29.59 "HgN/A
10:50 AM61 °FOvercast.23 mph83%29.59 "HgN/A
9:50 AM59 °FMostly cloudy.22 mph88%29.56 "HgN/A
8:50 AM59 °FDrizzle. Mostly cloudy.17 mph88%29.56 "HgN/A
7:50 AM57 °FDrizzle. Mostly cloudy.21 mph94%29.53 "HgN/A
6:50 AM57 °FDrizzle. Overcast.22 mph88%29.53 "HgN/A
5:50 AM57 °FOvercast.17 mph88%29.53 "HgN/A
3:50 AM55 °FRain. Overcast.23 mph94%29.53 "HgN/A
2:50 AM54 °FPassing clouds.22 mph94%29.53 "HgN/A
1:50 AM54 °FPassing clouds.21 mph94%29.56 "Hg4 mi
12:50 AM52 °FPassing clouds.21 mph94%29.59 "Hg5 mi
Weather by CustomWeather, © 2015

See weather overviewHow to use our weather pages